This is the latest recevied weather packets stored in our database for station/object SV9TNF-1. If no packets are shown the sender has not sent any weather packets the latest 10 day(s).
| Time | Temp. | Humidity | Pressure | Rain* | Wind** | Luminosity | Snow |
|---|---|---|---|---|---|---|---|
| 1777635920 | 17.22° C | 70% | 1005.1 hPa | 0 mm | 2.24 m/s, 133° | - | - |
| 1777635620 | 17.22° C | 70% | 1005.1 hPa | 0 mm | 0 m/s | - | - |
| 1777635320 | 17.78° C | 70% | 1005.1 hPa | 0 mm | 1.34 m/s, 135° | - | - |
| 1777635020 | 17.78° C | 69% | 1005.1 hPa | 0 mm | 1.79 m/s, 125° | - | - |
| 1777634720 | 17.78° C | 69% | 1005.1 hPa | 0 mm | 0.45 m/s, 143° | - | - |
| 1777634420 | 17.78° C | 69% | 1004.7 hPa | 0 mm | 1.34 m/s, 172° | - | - |
| 1777634119 | 17.78° C | 69% | 1004.7 hPa | 0 mm | 0.45 m/s, 125° | - | - |
| 1777633819 | 17.78° C | 68% | 1004.7 hPa | 0 mm | 2.68 m/s, 115° | - | - |
| 1777633519 | 17.78° C | 69% | 1004.7 hPa | 0 mm | 1.34 m/s, 124° | - | - |
| 1777633219 | 17.78° C | 70% | 1004.7 hPa | 0 mm | 1.34 m/s, 143° | - | - |
| 1777632919 | 17.78° C | 69% | 1004.7 hPa | 0 mm | 2.68 m/s, 133° | - | - |
| 1777632619 | 17.78° C | 69% | 1004.7 hPa | 0 mm | 0.89 m/s, 117° | - | - |
| 1777632319 | 17.78° C | 70% | 1004.1 hPa | 0 mm | 0 m/s | - | - |
| 1777632019 | 17.78° C | 70% | 1004.1 hPa | 0 mm | 1.34 m/s, 133° | - | - |
| 1777631718 | 17.78° C | 71% | 1004.1 hPa | 0 mm | 1.34 m/s, 126° | - | - |
| 1777631418 | 17.78° C | 70% | 1004.1 hPa | 0 mm | 0 m/s | - | - |
| 1777631118 | 17.78° C | 69% | 1004.1 hPa | 0 mm | 1.34 m/s, 135° | - | - |
| 1777630818 | 18.33° C | 69% | 1004.7 hPa | 0 mm | 0.45 m/s, 132° | - | - |
| 1777630518 | 18.33° C | 70% | 1004.7 hPa | 0 mm | 0.45 m/s, 123° | - | - |
| 1777630218 | 17.78° C | 69% | 1004.1 hPa | 0 mm | 2.24 m/s, 119° | - | - |
| 1777629918 | 18.33° C | 71% | 1004.1 hPa | 0 mm | 2.24 m/s, 128° | - | - |
| 1777629618 | 18.33° C | 69% | 1004.1 hPa | 0 mm | 4.02 m/s, 138° | - | - |
| 1777629318 | 18.33° C | 70% | 1004.1 hPa | 0 mm | 1.34 m/s, 131° | - | - |
| 1777629018 | 18.33° C | 70% | 1004.1 hPa | 0 mm | 0.89 m/s, 140° | - | - |
| 1777628718 | 18.33° C | 71% | 1004.1 hPa | 0 mm | 0.89 m/s, 140° | - | - |
* Rain latest hour (hover to see other rain measurements)
** Current wind speed in m/s (hover to see current wind gust speed)